Location: Andrest
(43.3200°N, 0.0641°E)
Time: 04:54:29
(UTC+00:00)

SL-8 Rocket - Pass Details

Date: 21 April 2021
Orbit: 958 x 989 km, 82.9° (Epoch: 11 May)

Event Time Altitude Azimuth Distance (km) Brightness Sun altitude
Rises 02:05:57 0° 344° (NNW) 3,695 7.5 -27.6°
Reaches altitude 10° 02:08:39 10° 336° (NNW) 2,747 6.7 -27.3°
Enters shadow 02:13:33 35° 287° (WNW) 1,546 4.8 -26.8°
